FW4441 Weather Reports


time (UTC)temp
C
wind
direction
speed
KPH
gust
KPH
rain 1hr
cm
rain 24hr
cm
rain mn
cm
humidity
%
barometer
mb
20260507093032 12 241 14.5 29.0 0.00 0.00 0.00 80 1015.7
20260507091530 12 244 14.5 29.0 0.00 0.00 0.00 80 1015.7
20260507090029 12 258 12.9 30.6 0.00 0.00 0.00 80 1015.8
20260507084530 12 233 9.7 22.5 0.00 0.00 0.00 80 1015.8
20260507081533 12 245 8.0 14.5 0.00 0.00 0.00 79 1015.8
20260507080029 12 240 4.8 11.3 0.00 0.00 0.00 79 1015.9
20260507074531 12 246 6.4 17.7 0.00 0.00 0.00 78 1016.0
20260507073032 13 255 9.7 20.9 0.00 0.00 0.00 78 1016.1
20260507071531 13 253 12.9 30.6 0.00 0.00 0.00 78 1016.1
20260507061530 13 240 9.7 20.9 0.00 0.00 0.00 78 1016.2
20260507060031 13 248 12.9 24.1 0.00 0.00 0.00 77 1016.2
20260507054607 14 252 16.1 29.0 0.00 0.00 0.00 77 1016.3
20260507053032 14 250 17.7 32.2 0.00 0.00 0.00 77 1016.5
20260507051530 14 248 14.5 32.2 0.00 0.00 0.00 76 1016.7
20260507050107 14 255 11.3 25.7 0.00 0.00 0.00 75 1016.7
20260507044531 14 264 12.9 30.6 0.00 0.00 0.00 74 1016.6
20260507043031 14 256 11.3 20.9 0.00 0.00 0.00 72 1016.6
20260507041530 14 303 11.3 20.9 0.00 0.00 0.00 68 1016.2
20260507034531 16 238 8.0 20.9 0.00 0.00 0.00 61 1016.0
20260507033029 16 206 9.7 19.3 0.00 0.00 0.00 59 1015.8
20260507031556 17 204 6.4 14.5 0.00 0.00 0.00 56 1015.6
20260507030035 18 215 9.7 19.3 0.00 0.00 0.00 53 1015.6
20260507024530 18 213 12.9 25.7 0.00 0.00 0.00 52 1015.5
20260507023029 19 219 12.9 27.4 0.00 0.00 0.00 52 1015.3
20260507021532 19 240 12.9 27.4 0.00 0.00 0.00 51 1015.3
20260507020032 20 251 17.7 25.7 0.00 0.00 0.00 50 1015.2
20260507014529 20 267 16.1 30.6 0.00 0.00 0.00 51 1015.1
20260507013029 20 270 17.7 35.4 0.00 0.00 0.00 50 1015.1
20260507010032 19 254 19.3 38.6 0.00 0.00 0.00 51 1015.1
20260507004530 19 269 19.3 38.6 0.00 0.00 0.00 52 1015.1
20260507003031 19 276 19.3 37.0 0.00 0.00 0.00 52 1015.0
20260507001531 19 273 19.3 38.6 0.00 0.00 0.00 53 1014.9
20260507000031 18 293 16.1 29.0 0.00 0.00 0.00 55 1014.9
20260506234531 19 300 19.3 30.6 0.00 0.00 0.00 54 1014.8
20260506233032 19 303 16.1 32.2 0.00 0.00 0.00 53 1014.9
20260506231530 19 298 17.7 38.6 0.00 0.00 0.00 52 1014.9
20260506230030 20 287 19.3 33.8 0.00 0.00 0.00 50 1015.0
20260506223031 23 288 19.3 35.4 0.00 0.00 0.00 47 1014.9
20260506221531 23 280 19.3 33.8 0.00 0.00 0.00 47 1014.9
20260506220033 23 275 20.9 40.2 0.00 0.00 0.00 48 1014.8
20260506214532 22 269 24.1 40.2 0.00 0.00 0.00 49 1014.9
20260506213106 22 278 20.9 40.2 0.00 0.00 0.00 50 1014.9
20260506210034 22 288 16.1 33.8 0.00 0.00 0.00 52 1015.0
20260506204531 22 299 17.7 33.8 0.00 0.00 0.00 52 1015.1
20260506203030 22 300 19.3 35.4 0.00 0.00 0.00 53 1015.4
20260506201540 22 286 20.9 40.2 0.00 0.00 0.00 53 1015.4
20260506200029 21 284 17.7 37.0 0.00 0.00 0.00 54 1015.5
20260506194535 21 277 20.9 43.5 0.00 0.00 0.00 55 1015.5
20260506193029 21 275 22.5 41.8 0.00 0.00 0.00 56 1015.5
20260506191532 20 277 20.9 43.5 0.00 0.00 0.00 58 1015.7
20260506190031 20 282 19.3 33.8 0.00 0.00 0.00 59 1015.7
20260506184608 20 264 24.1 40.2 0.00 0.00 0.00 59 1015.7
20260506183030 20 265 22.5 41.8 0.00 0.00 0.00 59 1015.5
20260506181530 20 268 19.3 45.1 0.00 0.00 0.00 60 1015.6
20260506173029 19 275 19.3 37.0 0.00 0.00 0.00 62 1015.8
20260506171530 20 263 17.7 37.0 0.00 0.00 0.00 62 1015.6
20260506170032 19 262 12.9 27.4 0.00 0.00 0.00 63 1015.6
20260506164529 19 267 14.5 27.4 0.00 0.00 0.00 65 1015.5
20260506163030 18 271 12.9 19.3 0.00 0.00 0.00 67 1015.7
20260506161531 17 277 14.5 37.0 0.00 0.00 0.00 68 1016.1
20260506154529 16 269 16.1 30.6 0.00 0.00 0.00 70 1015.8
20260506153029 16 258 16.1 29.0 0.00 0.00 0.00 72 1015.7
20260506151530 16 251 4.8 16.1 0.00 0.00 0.00 72 1015.7
20260506150031 16 255 0.0 4.8 0.00 0.00 0.00 73 1015.7
20260506144646 15 233 1.6 4.8 0.00 0.00 0.00 78 1015.8
20260506143030 13 222 0.0 4.8 0.00 0.00 0.00 81 1015.8
20260506141608 12 196 0.0 6.4 0.00 0.00 0.00 86 1015.7
20260506140106 11 156 3.2 8.0 0.00 0.00 0.00 88 1015.6
20260506134534 11 147 3.2 11.3 0.00 0.00 0.00 88 1015.5
20260506133029 10 156 4.8 9.7 0.00 0.00 0.00 90 1015.4
20260506131532 10 152 3.2 4.8 0.00 0.00 0.00 89 1015.3
20260506130031 10 62 3.2 9.7 0.00 0.00 0.00 89 1015.3
20260506123030 10 83 1.6 8.0 0.00 0.00 0.00 89 1015.0
20260506121533 10 40 1.6 4.8 0.00 0.00 0.00 89 1014.8
20260506120107 10 47 3.2 6.4 0.00 0.00 0.00 90 1014.8
20260506113031 10 93 1.6 4.8 0.00 0.00 0.00 90 1014.5
20260506110030 10 258 0.0 6.4 0.00 0.00 0.00 88 1014.1
20260506103030 11 17 0.0 6.4 0.00 0.00 0.00 88 1013.9
20260506101532 10 46 4.8 6.4 0.00 0.00 0.00 88 1013.9
20260506100048 10 118 0.0 4.8 0.00 0.00 0.00 86 1013.9
20260506094532 11 1 3.2 8.0 0.00 0.00 0.00 86 1013.9